Stations météo

réclame
Mon MeteoGroup
Le Luc, France (7675): Température de l'air & dewpoint: 08.08.2018 19:00:00 - 14.08.2018 19:00:00 (CEST)Le Luc, France (7675): Température de l'air 5cm: 08.08.2018 19:00:00 - 14.08.2018 19:00:00 (CEST)Le Luc, France (7675): Vitesse du vent & gusts: 08.08.2018 19:00:00 - 14.08.2018 19:00:00 (CEST)Le Luc, France (7675): Direction du vent: 08.08.2018 19:00:00 - 14.08.2018 19:00:00 (CEST)Le Luc, France (7675): reduced air pressure: 08.08.2018 19:00:00 - 14.08.2018 19:00:00 (CEST)Le Luc, France (7675): visibility: 08.08.2018 19:00:00 - 14.08.2018 19:00:00 (CEST)Le Luc, France (7675): Ensoleillement: 08.08.2018 19:00:00 - 14.08.2018 19:00:00 (CEST)Le Luc, France (7675): Quantités de précipitations: 08.08.2018 19:00:00 - 14.08.2018 19:00:00 (CEST)
Date & Time tt [°C] td [°C] tt 5cm [°C] ff [km/h] ff [knt] fx [km/h] fx [knt] dd ppp [hPa] vv [km] sd [min] rr [mm]
14.08.2018 19:00:00 20,0 17,6 19,1 34 18 63 34 NNE 1012,5 2,3 3 6,6
14.08.2018 18:00:00 30,8 16,0 33,2 14 8 32 18 W 1009,4 20 45 0,0
14.08.2018 17:00:00 31,7 17,2 37,0 19 11 38 21 WNW 1008,7 20 60 0,0
14.08.2018 16:00:00 31,7 16,4 33,3 20 11 40 22 WNW 1008,8 20 53 0,0
14.08.2018 15:00:00 30,9 16,9 32,9 18 10 37 20 W 1009,4 20 51 0,0
14.08.2018 14:00:00 29,6 16,8 31,6 23 12 42 23 NW 1009,9 20 43 0,0
14.08.2018 13:00:00 28,9 17,1 33,1 24 13 56 31 WNW 1010,3 20 60 0,0
14.08.2018 12:00:00 27,6 16,6 31,8 32 17 48 26 WNW 1010,6 20 60 0,0
14.08.2018 11:00:00 26,4 16,0 29,9 19 10 48 26 WNW 1011,5 20 60 0,0
14.08.2018 10:00:00 24,6 16,3 27,4 18 10 48 26 W 1011,4 20 60 0,0
14.08.2018 09:00:00 23,1 16,9 24,4 18 10 48 26 WNW 1011,6 20 60 0,0
14.08.2018 08:00:00 22,0 16,7 20,7 24 13 41 22 W 1011,3 20 52 0,0
14.08.2018 07:00:00 21,3 16,7 20,5 30 16 51 28 W 1011,2 20 0 0,0
14.08.2018 06:00:00 21,6 17,6 20,0 15 8 26 14 W 1011,4 20 0 0,0
14.08.2018 05:00:00 21,5 18,7 20,4 7 4 17 9 SW 1011,5 20 0 0,0
14.08.2018 04:00:00 22,5 19,1 21,3 10 6 32 17 W 1011,5 20 0 0,0
14.08.2018 03:00:00 23,1 19,1 22,3 24 13 36 19 W 1011,4 20 0 0,0
14.08.2018 02:00:00 23,4 19,3 21,9 21 12 32 18 W 1011,7 20 0 0,0
14.08.2018 01:00:00 23,1 19,1 22,1 8 5 24 13 SW 1011,9 20 0 0,0
14.08.2018 00:00:00 23,9 18,8 22,8 16 9 24 13 W 1012,0 20 0 0,0
13.08.2018 23:00:00 24,3 18,7 22,4 14 8 23 12 W 1012,0 20 0 0,0
13.08.2018 22:00:00 23,9 20,4 22,7 5 3 18 10 SW 1011,8 20 0 0,0
13.08.2018 21:00:00 24,7 20,6 23,6 9 5 15 8 WSW 1011,4 20 0 0,0
13.08.2018 20:00:00 25,9 20,7 25,2 8 4 21 12 SW 1010,9 20 42 0,0
13.08.2018 19:00:00 27,4 20,5 30,7 15 8 33 18 WSW 1011,2 20 60 0,0
13.08.2018 18:00:00 27,6 20,7 32,1 20 11 36 19 WSW 1011,6 20 60 0,0
13.08.2018 17:00:00 28,8 20,5 35,0 14 8 31 17 SW 1011,8 20 60 0,0
13.08.2018 16:00:00 28,6 20,1 32,6 16 8 31 17 SSW 1012,4 20 56 0,0
13.08.2018 15:00:00 27,9 20,5 31,3 7 4 16 9 SW 1012,9 20 39 0,0
13.08.2018 14:00:00 26,1 18,8 33,5 5 3 11 6 ENE 1013,9 20 60 0,0
13.08.2018 13:00:00 24,2 18,6 24,7 6 3 14 8 NE 1014,3 20 58 0,0
13.08.2018 12:00:00 21,5 19,1 19,6 4 2 10 6 WNW 1014,5 20 0 0,0
13.08.2018 11:00:00 18,8 18,1 18,2 4 2 6 4 WSW 1014,8 20 0 1,1
13.08.2018 10:00:00 18,6 17,9 18,0 3 2 10 6 S 1015,3 8 0 3,6
13.08.2018 09:00:00 18,9 17,6 17,8 8 4 21 12 W 1015,8 14 0 5,9
13.08.2018 08:00:00 19,9 17,7 18,4 23 12 35 19 NW 1015,9 8 0 2,0
13.08.2018 07:00:00 20,5 17,9 18,5 4 2 16 9 NE 1013,8 20 0 0,0
13.08.2018 06:00:00 19,5 16,9 18,1 3 1 5 3 SSW 1012,8 20 0 0,0
13.08.2018 05:00:00 19,3 16,7 18,6 5 3 8 5 E 1013,1 20 0 0,0
13.08.2018 04:00:00 19,7 16,9 18,3 0 0 5 3 N 1014,4 20 0 0,0
13.08.2018 03:00:00 19,5 16,3 18,4 2 1 6 3 E 1014,4 20 0 0,0
13.08.2018 02:00:00 20,8 16,2 18,8 0 0 10 6 N 1014,6 20 0 0,0
13.08.2018 01:00:00 21,6 15,9 19,5 5 3 9 5 W 1014,8 20 0 0,0
13.08.2018 00:00:00 21,6 15,2 20,1 5 3 12 7 ENE 1015,2 20 0 0,0
12.08.2018 23:00:00 25,0 16,2 22,8 8 4 22 12 W 1015,8 20 0 0,0
12.08.2018 22:00:00 25,8 13,0 23,8 15 8 16 9 WNW 1015,7 20 0 0,0
12.08.2018 21:00:00 27,3 11,7 25,5 7 4 23 13 WSW 1014,2 20 19 0,0
12.08.2018 20:00:00 29,6 13,8 28,9 16 9 27 14 WSW 1014,0 20 60 0,0
12.08.2018 19:00:00 31,1 13,8 34,5 14 7 25 14 WSW 1013,9 20 60 0,0
12.08.2018 18:00:00 32,0 15,1 37,7 12 6 25 14 SW 1014,3 20 60 0,0
12.08.2018 17:00:00 32,1 16,0 38,6 16 9 27 15 WSW 1014,6 20 60 0,0
12.08.2018 16:00:00 32,2 17,7 37,7 11 6 26 14 SSW 1015,2 20 51 0,0
12.08.2018 15:00:00 33,1 12,7 41,6 9 5 19 10 W 1015,7 20 57 0,0
12.08.2018 14:00:00 32,7 14,3 40,3 5 3 14 8 ENE 1016,2 20 60 0,0
12.08.2018 13:00:00 31,7 16,8 40,0 4 2 15 8 W 1016,8 20 60 0,0
12.08.2018 12:00:00 29,6 18,4 37,6 2 1 8 4 N 1017,5 20 60 0,0
12.08.2018 11:00:00 27,6 17,5 33,4 2 1 6 4 SE 1017,8 20 60 0,0
12.08.2018 10:00:00 24,3 14,4 28,2 0 0 5 3 N 1018,0 20 60 0,0
12.08.2018 09:00:00 21,4 13,8 23,0 2 1 4 2 E 1018,2 20 60 0,0
12.08.2018 08:00:00 18,4 14,3 13,7 0 0 4 2 N 1018,1 20 60 0,0
12.08.2018 07:00:00 15,1 13,3 13,0 0 0 3 2 N 1018,0 20 2 0,0
12.08.2018 06:00:00 15,1 12,8 13,2 2 1 4 2 NW 1017,6 20 0 0,0
12.08.2018 05:00:00 15,9 13,0 13,9 0 0 4 2 N 1017,4 20 0 0,0
12.08.2018 04:00:00 16,4 13,9 14,4 4 2 5 3 WNW 1017,6 20 0 0,0
12.08.2018 03:00:00 16,8 13,7 15,0 4 2 8 4 ESE 1017,6 20 0 0,0
12.08.2018 02:00:00 18,7 14,0 15,9 4 2 6 3 W 1017,2 20 0 0,0
12.08.2018 01:00:00 19,7 14,1 17,1 2 1 7 4 W 1017,5 20 0 0,0
12.08.2018 00:00:00 21,3 13,0 18,0 2 1 11 6 ENE 1017,4 20 0 0,0
11.08.2018 23:00:00 23,5 11,9 20,8 4 2 12 6 S 1017,4 20 0 0,0
11.08.2018 22:00:00 25,1 13,3 22,2 3 2 11 6 SW 1017,0 20 0 0,0
11.08.2018 21:00:00 28,3 10,9 25,4 10 5 16 9 WNW 1016,1 20 21 0,0
11.08.2018 20:00:00 31,3 11,1 29,9 10 6 28 15 WNW 1015,6 20 53 0,0
11.08.2018 19:00:00 32,6 10,0 34,7 20 11 31 17 W 1015,5 20 57 0,0
11.08.2018 18:00:00 33,4 11,3 38,4 18 10 29 16 W 1015,6 20 60 0,0
11.08.2018 17:00:00 33,8 10,4 40,5 16 9 31 17 W 1015,9 20 60 0,0
11.08.2018 16:00:00 33,4 11,9 39,8 18 10 34 18 WSW 1016,5 20 60 0,0
11.08.2018 15:00:00 33,3 10,6 39,5 13 7 33 18 WNW 1017,0 20 60 0,0
11.08.2018 14:00:00 32,3 10,9 38,8 14 8 26 14 WNW 1017,4 20 60 0,0
11.08.2018 13:00:00 31,1 12,0 35,5 11 6 40 22 WNW 1018,1 20 60 0,0
11.08.2018 12:00:00 29,6 9,2 34,4 28 15 42 23 W 1018,5 20 60 0,0
11.08.2018 11:00:00 28,1 9,9 31,7 22 12 36 20 WNW 1019,0 20 60 0,0
11.08.2018 10:00:00 26,1 10,3 28,1 22 12 38 21 W 1019,2 20 60 0,0
11.08.2018 09:00:00 23,9 11,2 24,4 21 11 31 17 WSW 1019,3 20 60 0,0
11.08.2018 08:00:00 22,0 11,1 17,4 19 11 29 16 WSW 1019,5 20 60 0,0
11.08.2018 07:00:00 18,9 10,7 16,0 8 4 21 11 NW 1019,6 20 3 0,0
11.08.2018 06:00:00 20,6 10,1 17,0 6 3 24 13 W 1019,4 20 0 0,0
11.08.2018 05:00:00 21,0 10,5 19,2 14 8 26 14 WNW 1019,6 20 0 0,0
11.08.2018 04:00:00 21,2 10,1 19,5 19 11 34 19 WNW 1019,8 20 0 0,0
11.08.2018 03:00:00 21,7 10,2 16,8 18 10 29 16 WNW 1020,3 20 0 0,0
11.08.2018 02:00:00 22,1 10,6 16,9 3 2 13 7 W 1020,7 20 0 0,0
11.08.2018 01:00:00 22,0 11,1 17,5 0 0 10 5 N 1020,8 20 0 0,0
11.08.2018 00:00:00 21,7 12,3 18,1 6 3 11 6 N 1020,6 20 0 0,0
10.08.2018 23:00:00 23,5 12,2 20,5 4 2 10 5 SSW 1020,3 20 0 0,0
10.08.2018 22:00:00 25,7 12,2 22,6 5 3 16 9 S 1020,1 20 0 0,0
10.08.2018 21:00:00 27,7 12,5 25,2 5 3 25 13 WSW 1019,3 19 22 0,0
10.08.2018 20:00:00 30,2 13,9 29,2 18 10 34 19 W 1018,6 20 60 0,0
10.08.2018 19:00:00 32,1 14,3 35,2 19 10 32 17 W 1018,2 20 60 0,0
10.08.2018 18:00:00 32,6 14,7 37,1 19 10 35 19 W 1018,3 20 60 0,0
10.08.2018 17:00:00 32,6 16,0 38,0 20 11 36 19 WSW 1018,4 20 60 0,0
10.08.2018 16:00:00 32,9 14,5 38,9 20 11 38 21 W 1018,8 20 60 0,0
10.08.2018 15:00:00 32,7 15,7 39,1 16 9 33 18 WNW 1019,0 20 60 0,0
10.08.2018 14:00:00 31,7 16,4 37,5 21 11 32 17 W 1019,2 20 60 0,0
10.08.2018 13:00:00 30,2 17,0 35,4 18 10 33 18 W 1019,6 20 60 0,0
10.08.2018 12:00:00 28,9 17,4 33,5 21 11 33 18 W 1019,8 20 60 0,0
10.08.2018 11:00:00 26,6 17,4 30,8 19 11 28 15 W 1019,8 20 60 0,0
10.08.2018 10:00:00 24,5 17,2 25,2 10 5 27 15 W 1019,9 20 39 0,0
10.08.2018 09:00:00 22,5 16,5 23,0 21 11 38 20 W 1019,9 20 60 0,0
10.08.2018 08:00:00 21,0 17,2 18,6 16 9 26 14 W 1019,9 20 29 0,0
10.08.2018 07:00:00 19,5 16,5 18,0 9 5 23 12 WSW 1019,3 20 0 0,0
10.08.2018 06:00:00 19,8 17,0 18,5 18 10 29 16 W 1018,9 20 0 0,0
10.08.2018 05:00:00 19,7 18,2 18,6 16 9 24 13 W 1018,2 20 0 0,0
10.08.2018 04:00:00 19,7 18,5 18,4 13 7 23 13 SW 1019,1 20 0 0,0
10.08.2018 03:00:00 19,2 18,5 18,3 5 3 12 7 WSW 1018,8 18 0 0,0
10.08.2018 02:00:00 19,3 18,5 18,7 9 5 16 9 SW 1019,2 16 0 0,0
10.08.2018 01:00:00 19,8 19,0 18,8 7 4 14 7 SW 1019,8 20 0 0,0
10.08.2018 00:00:00 19,8 19,1 19,1 9 5 16 9 NW 1019,8 20 0 0,0
09.08.2018 23:00:00 20,1 19,6 19,5 8 5 21 12 WNW 1019,0 17 0 0,8
09.08.2018 22:00:00 20,2 19,5 19,7 9 5 14 7 NE 1019,1 5 0 3,2
09.08.2018 21:00:00 20,5 19,8 20,0 10 5 17 9 SW 1019,6 13 0 0,2
09.08.2018 20:00:00 20,4 19,6 20,1 2 1 18 10 S 1018,4 20 0 0,0
09.08.2018 19:00:00 20,8 20,3 20,5 4 2 14 7 SSE 1018,4 6 0 1,8
09.08.2018 18:00:00 21,3 20,6 20,7 8 5 16 9 E 1018,4 3,9 0 2,6
09.08.2018 17:00:00 21,7 20,3 21,3 5 3 21 11 SW 1018,6 20 0 0,0
09.08.2018 16:00:00 20,7 19,9 19,7 7 4 21 12 SW 1018,3 14 0 7,1
09.08.2018 15:00:00 21,1 19,0 19,4 5 3 55 30 ENE 1018,3 6 0 10,6
09.08.2018 14:00:00 28,4 21,9 24,6 16 9 23 13 E 1015,4 14 1 0,0
09.08.2018 13:00:00 29,0 20,2 33,0 13 7 19 10 SE 1016,5 20 2 0,0
09.08.2018 12:00:00 28,5 21,5 26,8 5 3 12 7 ESE 1016,6 20 4 0,0
09.08.2018 11:00:00 26,2 21,6 25,7 5 3 12 7 ENE 1016,0 18 0 0,0
09.08.2018 10:00:00 26,5 20,1 27,8 2 1 8 5 WNW 1016,6 20 24 0,0
09.08.2018 09:00:00 23,5 19,2 24,0 0 0 7 4 N 1016,4 19 22 0,0
09.08.2018 08:00:00 20,9 18,7 19,2 6 3 9 5 E 1016,0 16 52 0,0
09.08.2018 07:00:00 19,4 17,9 17,7 3 2 6 3 WSW 1016,1 17 5 0,0
09.08.2018 06:00:00 19,3 17,6 17,7 0 0 6 4 N 1015,2 18 0 0,0
09.08.2018 05:00:00 19,6 18,1 17,8 0 0 4 2 N 1015,3 18 0 0,0
09.08.2018 04:00:00 19,9 17,5 18,9 3 2 9 5 ESE 1015,5 19 0 0,0
09.08.2018 03:00:00 20,8 18,4 19,2 4 2 6 3 WNW 1015,3 20 0 0,0
09.08.2018 02:00:00 21,0 18,0 19,6 0 0 5 3 N 1015,6 20 0 0,0
09.08.2018 01:00:00 22,3 18,5 20,5 2 1 4 2 WSW 1015,9 20 0 0,0
09.08.2018 00:00:00 22,8 18,3 21,2 0 0 6 3 N 1015,8 20 0 0,0
08.08.2018 23:00:00 24,3 18,7 22,7 3 2 8 4 E 1015,3 20 0 0,0
08.08.2018 22:00:00 25,6 18,3 23,3 0 0 9 5 N 1015,0 20 0 0,0
08.08.2018 21:00:00 26,9 18,7 25,8 5 3 14 8 N 1014,4 20 7 0,0
08.08.2018 20:00:00 28,5 20,2 28,8 8 4 22 12 N 1014,0 20 60 0,0
08.08.2018 19:00:00 29,4 20,3 31,3 18 10 31 17 ENE 1013,4 20 52 0,0

tt = Température de l'air
td = dewpoint
tt 5cm = Température de l'air 5cm
ff = Vitesse du vent
fx = gusts
dd = Direction du vent
ppp = reduced air pressure
vv = visibility
sd = Ensoleillement
rr = Quantités de précipitations

stations d'obs. à proximité